Location: Unspecified
(0.0000°N, 0.0000°E)
Time: 12:05:52
(UTC+02:00)

Amateur Radio Satellites - All Passes

Search period start: 20 August 2017 11:35
Search period end: 21 August 2017 11:35
Location: Unspecified, 0.0000°N, 0.0000°E

Satellite Date Start Highest point End Downlink Frequencies (MHz)
Time Altitude Azimuth
Max Valier Satellite 20 Aug 11:59:06 12:02:12 25° 281° (W) 12:05:20 145.860
DELFI C3 20 Aug 12:00:06 12:02:57 19° 281° (WNW) 12:05:49 145.870
FO-29 20 Aug 12:00:33 12:07:15 32° 256° (WSW) 12:13:54 435.910
JUGNU 20 Aug 12:08:49 12:11:41 14° 349° (N) 12:14:34 437.505
AIST 2D 20 Aug 12:11:37 12:13:22 13° 79° (E) 12:15:07 435.315
SRMSAT 20 Aug 12:13:29 12:19:06 44° 340° (NNW) 12:24:43 437.500
M-CUBED/EXP-1 PRIME 20 Aug 12:15:39 12:18:08 16° 73° (ENE) 12:20:42 437.505
SO-50 20 Aug 12:21:26 12:23:59 14° 247° (WSW) 12:26:32 436.795
UNISAT 6 20 Aug 12:25:53 12:29:02 19° 257° (WSW) 12:32:08 437.425
PRISM 20 Aug 12:50:15 12:51:58 12° 258° (WSW) 12:53:41 437.425
LO-87 20 Aug 12:54:29 12:57:58 70° 282° (WNW) 13:01:31 145.935 - 145.965
NO-84 20 Aug 13:03:49 13:07:19 37° 237° (WSW) 13:11:06 435.350 FM
NANOSAT C BR1 20 Aug 13:08:53 13:12:39 32° 78° (ENE) 13:16:23 145.865
POLYITAN 1 20 Aug 13:12:24 13:16:25 42° 78° (ENE) 13:20:24 437.675
ESTCUBE 1 20 Aug 13:17:36 13:22:06 71° 282° (WNW) 13:26:36 437.505/2401.250
RS-15 20 Aug 13:17:49 13:26:30 24° 293° (WNW) 13:35:29 29.354- 29.394
QB50P2 20 Aug 13:27:13 13:31:28 83° 81° (E) 13:35:40 145.880/145.840
EO-79 20 Aug 13:28:16 13:32:31 75° 78° (ENE) 13:36:43 145.935-145.965
VELOX 1 20 Aug 13:29:45 13:32:56 20° 102° (ESE) 13:36:06 145.980
SPROUT 20 Aug 13:43:43 13:47:43 42° 101° (ESE) 13:51:46 437.525
AIST 2D 20 Aug 13:44:30 13:46:18 14° 259° (WSW) 13:48:05 435.315
M-CUBED/EXP-1 PRIME 20 Aug 13:49:10 13:52:14 21° 256° (WSW) 13:55:28 437.505
DUCHIFAT 1 20 Aug 13:59:34 14:03:39 49° 258° (WSW) 14:07:42 145.980
BUGSAT 1 20 Aug 14:03:45 14:07:29 31° 79° (ENE) 14:11:10 437.445
SRMSAT 20 Aug 14:04:37 14:08:38 19° 345° (NNW) 14:12:38 437.500
Oscar 19 20 Aug 14:35:46 14:40:15 31° 77° (ENE) 14:44:43 437.125/150
UKube-1 20 Aug 14:50:01 14:53:47 30° 102° (ESE) 14:57:33 .
VELOX 1 20 Aug 15:06:14 15:09:06 17° 282° (WNW) 15:11:58 145.980
DX 1 20 Aug 15:09:15 15:13:33 76° 282° (WNW) 15:17:52 434.975-435.025
50 SAT 20 Aug 15:25:28 15:27:49 18° 281° (WNW) 15:30:11 437.505
Gurwin Techsat 1B 20 Aug 15:41:22 15:46:40 71° 257° (WSW) 15:51:57 435.225
JUGNU 20 Aug 15:49:26 15:51:58 13° 10° (N) 15:54:29 437.505
SRMSAT 20 Aug 15:57:45 15:58:42 10° 354° (N) 15:59:41 437.500
YUBILEINY 20 Aug 16:03:22 16:10:12 25° 93° (E) 16:16:57 435.215
Oscar 19 20 Aug 16:16:20 16:19:17 15° 257° (WSW) 16:22:14 437.125/150
MOZHAYETS 4 20 Aug 16:26:58 16:31:01 31° 102° (ESE) 16:35:06
UKube-1 20 Aug 16:28:50 16:29:31 10° 283° (WNW) 16:30:12 .
BEESAT 20 Aug 16:35:38 16:40:15 52° 102° (ESE) 16:44:54 436.000
BEESAT 3 20 Aug 16:49:42 16:53:15 36° 68° (ENE) 16:56:47 437.485
AO-7 20 Aug 16:51:20 16:59:33 60° 74° (ENE) 17:07:43 .
BEESAT 2 20 Aug 17:03:34 17:05:14 12° 68° (ENE) 17:06:53 435.950
ITUPSAT 1 20 Aug 17:09:21 17:14:02 57° 282° (WNW) 17:18:45 437.325
ITAMSAT 1 20 Aug 17:32:04 17:37:12 55° 257° (WSW) 17:42:17 435.822/435.867
JUGNU 20 Aug 17:36:48 17:41:37 26° 18° (NNE) 17:46:27 437.505
SRMSAT 20 Aug 17:48:09 17:49:05 10° 5° (N) 17:50:02 437.500
AO-85 20 Aug 17:48:19 17:53:04 57° 248° (WSW) 17:58:10 145.980
YUBILEINY 20 Aug 17:58:28 18:06:35 41° 273° (W) 18:14:41 435.215
MOZHAYETS 4 20 Aug 18:05:59 18:07:54 12° 282° (WNW) 18:09:50
KKS-1 20 Aug 18:19:48 18:24:02 47° 102° (ESE) 18:28:17 437.445
CUBESAT XI-V 20 Aug 18:21:21 18:25:56 57° 282° (WNW) 18:30:32 437.345
BEESAT 2 20 Aug 18:39:39 18:42:43 22° 248° (WSW) 18:45:46 435.950
AO-7 20 Aug 18:46:50 18:51:52 17° 253° (WSW) 18:56:55 .
XW-2B 20 Aug 18:59:31 19:01:24 13° 79° (ENE) 19:03:16 145.730 - 145.750
STARS 20 Aug 19:00:11 19:04:26 55° 102° (ESE) 19:08:42 437.465
DOVE 4 20 Aug 19:00:13 19:05:26 79° 79° (E) 19:10:43 437.250
XW-2C 20 Aug 19:17:14 19:20:25 27° 79° (E) 19:23:35 145.795 - 145.815
JUGNU 20 Aug 19:24:58 19:30:47 70° 22° (NNE) 19:36:37 437.505
XW-2F 20 Aug 19:29:36 19:33:05 39° 79° (E) 19:36:35 145.980 - 146.000
SRMSAT 20 Aug 19:35:11 19:39:11 18° 15° (NNE) 19:43:11 437.500
CUTE-I 20 Aug 19:36:20 19:41:27 46° 78° (ENE) 19:46:33 437.470
KAITUO 1B 20 Aug 19:55:37 19:59:18 84° 79° (E) 20:02:59 145.475/437.950
nSIGHT-1 20 Aug 20:11:37 20:13:15 13° 54° (NE) 20:14:54 .
LilacSat-2 20 Aug 20:16:09 20:19:20 27° 258° (WSW) 20:22:32 437.200
STRAND 1 20 Aug 20:17:33 20:21:17 21° 103° (ESE) 20:25:00 437.568
XW-2D 20 Aug 20:21:17 20:24:17 23° 259° (WSW) 20:27:18 145.860 - 145.880
SEEDS 20 Aug 20:26:25 20:29:08 17° 78° (ENE) 20:31:51 437.485
NUDT-PHONESAT 20 Aug 20:29:51 20:32:56 26° 259° (WSW) 20:35:59 437.300
XW-2B 20 Aug 20:32:52 20:35:19 17° 259° (WSW) 20:37:45 145.730 - 145.750
Tancredo 1 20 Aug 20:39:10 20:41:22 20° 234° (SW) 20:43:36 437.200
HO-68 20 Aug 20:54:07 21:01:19 80° 76° (ENE) 21:08:28 435.675
UWE-3 20 Aug 21:11:19 21:15:11 31° 79° (E) 21:18:56 435.000/436.395/437.385
CUTE 1.7 + AOD 2 20 Aug 21:11:41 21:15:45 49° 259° (WSW) 21:19:49 437.475
AAUSAT CUBESAT 2 20 Aug 21:12:43 21:16:17 29° 79° (ENE) 21:19:52 437.432
JUGNU 20 Aug 21:14:19 21:19:49 42° 200° (SSW) 21:25:22 437.505
O/OREOS (USA 219) 20 Aug 21:16:15 21:19:31 19° 76° (ENE) 21:22:48 437.305
CUBEBUG 2 20 Aug 21:16:47 21:21:19 80° 78° (ENE) 21:25:41 437.445
CUTE-I 20 Aug 21:19:38 21:21:11 11° 257° (WSW) 21:22:43 437.470
SRMSAT 20 Aug 21:23:06 21:28:43 43° 20° (NNE) 21:34:22 437.500
Oscar 11 20 Aug 21:25:34 21:27:14 12° 78° (ENE) 21:28:53 .
ISS 20 Aug 21:37:36 21:40:21 25° 234° (SW) 21:43:06 437.550
XW-2A 20 Aug 21:40:02 21:43:02 31° 259° (WSW) 21:46:01 145.665 - 145.685
nSIGHT-1 20 Aug 21:47:15 21:49:26 17° 234° (SW) 21:51:37 .
ZACube-1 20 Aug 21:51:56 21:56:07 54° 79° (ENE) 22:00:12 437.345
STRAND 1 20 Aug 21:56:10 22:00:10 24° 283° (WNW) 22:04:12 437.568
SEEDS 20 Aug 22:01:44 22:04:33 18° 258° (WSW) 22:07:22 437.485
AO-73 20 Aug 22:13:20 22:17:37 82° 260° (W) 22:21:47 145.935
PCSat 20 Aug 22:20:56 22:25:52 37° 109° (ESE) 22:30:48 145.827
DELFI C3 20 Aug 22:24:48 22:26:32 13° 78° (ENE) 22:28:16 145.870
RS-15 20 Aug 22:46:24 22:57:23 52° 69° (ENE) 23:07:52 29.354- 29.394
UWE-3 20 Aug 22:50:40 22:51:18 10° 257° (WSW) 22:51:57 435.000/436.395/437.385
SO-50 20 Aug 22:52:05 22:56:34 52° 112° (ESE) 23:00:59 436.795
O/OREOS (USA 219) 20 Aug 22:55:29 22:58:38 18° 255° (WSW) 23:01:49 437.305
Oscar 11 20 Aug 22:59:30 23:03:05 26° 258° (WSW) 23:06:40 .
UNISAT 6 20 Aug 23:01:33 23:05:22 28° 102° (ESE) 23:09:16 437.425
JUGNU 20 Aug 23:05:17 23:09:12 18° 194° (SSW) 23:13:07 437.505
EO-88 20 Aug 23:11:24 23:14:39 32° 79° (E) 23:17:55 145.990 - 145.960
SRMSAT 20 Aug 23:12:00 23:17:57 69° 201° (SSW) 23:23:56 437.500
PRISM 20 Aug 23:16:03 23:19:25 25° 102° (ESE) 23:22:48 437.425
FO-29 20 Aug 23:34:40 23:39:31 42° 282° (WNW) 23:44:30 435.910
TIGRISAT 20 Aug 23:36:07 23:40:32 80° 104° (ESE) 23:45:05 435.000
Max Valier Satellite 20 Aug 23:49:51 23:53:12 34° 258° (WSW) 23:56:32 145.860
DELFI C3 20 Aug 23:57:59 00:01:01 21° 259° (WSW) 00:04:03 145.870
PCSat 21 Aug 00:06:09 00:09:00 14° 290° (WNW) 00:11:51 145.827
M-CUBED/EXP-1 PRIME 21 Aug 00:16:15 00:17:44 12° 104° (ESE) 00:19:10 437.505
UNISAT 6 21 Aug 00:39:57 00:41:49 12° 281° (WNW) 00:43:44 437.425
LO-87 21 Aug 00:42:16 00:45:53 70° 79° (E) 00:49:28 145.935 - 145.965
NO-84 21 Aug 00:48:29 00:51:42 37° 301° (WNW) 00:54:38 435.350 FM
PRISM 21 Aug 00:53:19 00:54:25 11° 282° (WNW) 00:55:31 437.425
JUGNU 21 Aug 00:58:11 00:59:09 10° 185° (S) 01:00:07 437.505
RS-15 21 Aug 01:00:33 01:09:15 26° 249° (WSW) 01:17:48 29.354- 29.394
SRMSAT 21 Aug 01:02:21 01:07:19 27° 198° (SSW) 01:12:18 437.500
NANOSAT C BR1 21 Aug 01:14:10 01:18:05 38° 102° (ESE) 01:22:01 145.865
POLYITAN 1 21 Aug 01:18:17 01:22:23 52° 102° (ESE) 01:26:32 437.675
AIST 2D 21 Aug 01:29:12 01:32:06 24° 281° (W) 01:35:01 435.315
ESTCUBE 1 21 Aug 01:31:50 01:36:06 44° 258° (WSW) 01:40:22 437.505/2401.250
QB50P2 21 Aug 01:33:16 01:37:29 80° 283° (WNW) 01:41:45 145.880/145.840
EO-79 21 Aug 01:34:06 01:38:18 89° 293° (WNW) 01:42:34 145.935-145.965
VELOX 1 21 Aug 01:40:31 01:44:22 29° 78° (ENE) 01:48:12 145.980
M-CUBED/EXP-1 PRIME 21 Aug 01:49:10 01:51:57 19° 287° (WNW) 01:54:37 437.505
SPROUT 21 Aug 01:50:37 01:54:49 55° 79° (E) 01:58:59 437.525
DUCHIFAT 1 21 Aug 02:04:48 02:08:45 41° 282° (WNW) 02:12:44 145.980
BUGSAT 1 21 Aug 02:06:30 02:10:10 34° 102° (ESE) 02:13:53 437.445
Gurwin Techsat 1B 21 Aug 02:41:28 02:45:24 21° 103° (ESE) 02:49:20 435.225
JUGNU 21 Aug 02:48:05 02:49:22 11° 174° (S) 02:50:39 437.505
SRMSAT 21 Aug 02:54:27 02:57:12 13° 190° (S) 02:59:57 437.500
UKube-1 21 Aug 02:58:05 03:02:09 40° 78° (ENE) 03:06:11 .
50 SAT 21 Aug 03:06:52 03:10:03 37° 259° (WSW) 03:13:14 437.505
Oscar 19 21 Aug 03:08:42 03:13:53 82° 102° (ESE) 03:19:04 437.125/150
VELOX 1 21 Aug 03:18:46 03:20:32 12° 258° (WSW) 03:22:17 145.980
DX 1 21 Aug 03:18:50 03:23:07 55° 258° (WSW) 03:27:24 434.975-435.025
ITUPSAT 1 21 Aug 03:56:16 03:58:47 14° 77° (ENE) 04:01:19 437.325
Gurwin Techsat 1B 21 Aug 04:20:50 04:25:03 25° 283° (WNW) 04:29:19 435.225
AO-85 21 Aug 04:24:32 04:26:17 12° 114° (ESE) 04:28:00 145.980
ITAMSAT 1 21 Aug 04:28:46 04:32:51 24° 103° (ESE) 04:36:58 435.822/435.867
JUGNU 21 Aug 04:35:10 04:39:18 19° 165° (SSE) 04:43:28 437.505
YUBILEINY 21 Aug 04:35:16 04:43:33 49° 87° (E) 04:51:52 435.215
BEESAT 3 21 Aug 04:41:02 04:44:38 36° 112° (ESE) 04:48:16 437.485
MOZHAYETS 4 21 Aug 04:43:18 04:47:44 51° 78° (ENE) 04:52:07
BEESAT 2 21 Aug 04:56:15 04:57:58 13° 112° (ESE) 04:59:42 435.950
BEESAT 21 Aug 04:57:23 05:02:09 80° 258° (WSW) 05:06:54 436.000
CUBESAT XI-V 21 Aug 05:05:19 05:07:02 12° 78° (ENE) 05:08:44 437.345
AO-7 21 Aug 05:17:34 05:25:52 87° 288° (WNW) 05:34:11 .
ITUPSAT 1 21 Aug 05:32:15 05:36:20 29° 257° (WSW) 05:40:25 437.325
AO-85 21 Aug 06:02:58 06:06:30 25° 291° (WNW) 06:09:51 145.980
ITAMSAT 1 21 Aug 06:08:16 06:12:02 21° 283° (WNW) 06:15:50 435.822/435.867
JUGNU 21 Aug 06:23:00 06:28:42 45° 160° (SSE) 06:34:25 437.505
KKS-1 21 Aug 06:32:00 06:36:29 73° 77° (ENE) 06:40:56 437.445
BEESAT 2 21 Aug 06:32:27 06:35:26 21° 292° (WNW) 06:38:27 435.950
YUBILEINY 21 Aug 06:34:07 06:39:57 20° 267° (W) 06:45:51 435.215
SRMSAT 21 Aug 06:34:48 06:37:52 14° 169° (S) 06:40:55 437.500
CUBESAT XI-V 21 Aug 06:40:03 06:44:07 31° 258° (WSW) 06:48:12 437.345
XW-2B 21 Aug 06:53:45 06:54:55 11° 102° (ESE) 06:56:04 145.730 - 145.750
STARS 21 Aug 07:10:48 07:15:15 81° 78° (ENE) 07:19:39 437.465
XW-2C 21 Aug 07:10:55 07:13:57 22° 101° (ESE) 07:16:59 145.795 - 145.815
DOVE 4 21 Aug 07:22:02 07:26:06 51° 281° (WNW) 07:30:08 437.250
XW-2F 21 Aug 07:22:43 07:26:09 31° 101° (ESE) 07:29:35 145.980 - 146.000
KAITUO 1B 21 Aug 07:47:39 07:51:23 61° 101° (E) 07:55:08 145.475/437.950
Tancredo 1 21 Aug 08:03:10 08:06:00 52° 305° (NW) 08:08:50 437.200
LilacSat-2 21 Aug 08:10:02 08:13:33 34° 281° (W) 08:17:05 437.200
JUGNU 21 Aug 08:11:49 08:17:47 67° 339° (NNW) 08:23:45 437.505
XW-2D 21 Aug 08:14:23 08:17:46 30° 281° (W) 08:21:10 145.860 - 145.880
CUTE-I 21 Aug 08:15:27 08:20:39 61° 283° (WNW) 08:25:54 437.470
NUDT-PHONESAT 21 Aug 08:20:38 08:24:06 36° 281° (W) 08:27:36 437.300
SRMSAT 21 Aug 08:22:31 08:27:40 29° 162° (SSE) 08:32:47 437.500
XW-2B 21 Aug 08:25:49 08:28:49 22° 281° (W) 08:31:48 145.730 - 145.750
SEEDS 21 Aug 08:31:04 08:34:13 20° 102° (ESE) 08:37:21 437.485
HO-68 21 Aug 08:45:40 08:52:46 68° 104° (ESE) 08:59:54 435.675
XW-2C 21 Aug 08:46:51 08:47:52 11° 281° (WNW) 08:48:53 145.795 - 145.815
STRAND 1 21 Aug 08:48:56 08:53:56 52° 78° (ENE) 08:58:53 437.568
ISS 21 Aug 09:11:10 09:14:18 42° 305° (NW) 09:17:26 437.550
AAUSAT CUBESAT 2 21 Aug 09:15:54 09:19:37 32° 101° (ESE) 09:23:19 437.432
CUTE 1.7 + AOD 2 21 Aug 09:17:56 09:21:56 40° 281° (WNW) 09:25:57 437.475
nSIGHT-1 21 Aug 09:19:46 09:22:38 28° 305° (NW) 09:25:30 .
UWE-3 21 Aug 09:21:31 09:25:44 45° 102° (ESE) 09:30:05 435.000/436.395/437.385
XW-2A 21 Aug 09:21:58 09:25:21 71° 282° (WNW) 09:28:47 145.665 - 145.685
O/OREOS (USA 219) 21 Aug 09:26:37 09:30:36 32° 105° (ESE) 09:34:35 437.305
CUBEBUG 2 21 Aug 09:28:40 09:33:00 69° 281° (WNW) 09:37:30 437.445
Oscar 11 21 Aug 09:33:04 09:35:48 16° 102° (ESE) 09:38:32 .
ZACube-1 21 Aug 10:01:01 10:05:26 77° 102° (ESE) 10:09:58 437.345
JUGNU 21 Aug 10:02:05 10:07:01 26° 342° (NNW) 10:11:55 437.505
SEEDS 21 Aug 10:07:09 10:09:37 15° 282° (WNW) 10:12:05 437.485
SRMSAT 21 Aug 10:11:01 10:17:00 78° 158° (SSE) 10:22:56 437.500
AO-73 21 Aug 10:22:13 10:26:34 61° 281° (WNW) 10:31:03 145.935
DELFI C3 21 Aug 10:23:16 10:24:35 11° 102° (ESE) 10:25:55 145.870
RS-15 21 Aug 10:27:27 10:38:21 45° 110° (ESE) 10:49:36 29.354- 29.394
HO-68 21 Aug 10:37:48 10:40:07 12° 285° (WNW) 10:42:26 435.675
PCSat 21 Aug 10:56:37 11:01:58 71° 251° (WSW) 11:07:21 145.827
EO-88 21 Aug 11:01:19 11:04:13 22° 101° (ESE) 11:07:08 145.990 - 145.960
SO-50 21 Aug 11:04:18 11:08:56 82° 247° (WSW) 11:13:39 436.795
FO-29 21 Aug 11:04:39 11:12:33 89° 244° (WSW) 11:20:14 435.910
Oscar 11 21 Aug 11:08:26 11:11:39 20° 282° (WNW) 11:14:53 .
UNISAT 6 21 Aug 11:14:37 11:18:54 43° 79° (ENE) 11:23:03 437.425
PRISM 21 Aug 11:18:19 11:21:53 28° 78° (ENE) 11:25:26 437.425
